Regional Weather Roundup
Issued by NWS

Home | Current Version | Previous Version | Text Only | Print | Product List | Glossary On
Versions: 1 2 3 4 5 6 7 8 9 10 11 12 13 14 15 16 17 18 19 20 21 22 23 24 25 26 27 28 29 30 31 32 33 34 35 36 37 38 39 40 41 42 43 44 45 46 47 48 49 50
000
ASUS42 KTBW 281216
RWRFL
FLORIDA REGIONAL WEATHER ROUNDUP
NATIONAL WEATHER SERVICE TAMPA BAY RUSKIN FL
800 AM EDT TUE APR 28 2015

NOTE: "FAIR" INDICATES FEW OR NO CLOUDS BELOW 12,000 FEET WITH NO
SIGNIFICANT WEATHER AND/OR OBSTRUCTIONS TO VISIBILITY.


FLZ001>010-012>015-112-114-115-281300-
PANHANDLE FLORIDA

CITY           SKY/WX    TMP DP  RH WIND       PRES   REMARKS
PENSACOLA      CLOUDY    63  61  93 NE6       29.79R
PENSACOLA NAS  CLOUDY    65  63  93 NE5       29.78R
MILTON NAS     CLOUDY    60  55  83 VRB5      29.79
CRESTVIEW      CLOUDY    61  58  90 NE5       29.81R
DUKE FIELD     FAIR      62  59  90 NE6       29.78R
VALPARAISO     CLOUDY    65  62  90 NE5       29.77R
MARY ESTHER    CLOUDY    65  60  84 E2        29.77R
TRI COUNTY       N/A     64  61  90 NE5       29.82R
PANAMA CITY    PTSUNNY   66  64  93 NE10      29.77F
TYNDALL AFB    CLOUDY    68  66  94 NE7       29.78S
APALACHICOLA   LGT RAIN  73  68  84 S13       29.77F

STATION/POSITION SKY/WX   TEMP    WIND        PRES    WAVE   SWELL
                          AIR SEA DIR/SP/G            HT/PER HT/PER
                          (F)     (DEG/KT/KT) (MB)    (FT/S) (FT/S)
30.1N   87.6W              70 73   50/ 14/ 17 1007.3R   5/ 7
29.2N   88.2W              74 75  100/ 16/ 17 1007.3R   7/ 8   5/ 8
28.8N   86.0W              72 75  100/ 21/ 29 1006.4F   3/ 7   2/ 7
PANAMA CITY BEAC           67 74   20/  6/  9 1008.5R
CAPE SAN BLAS    NOT AVBL
TOWER C                    71     200/ 16/ 17 1009.1F
28.5N   84.5W              70 74  350/  8/ 10 1010.9R   2/ 7   2/ 7

$$
FLZ011-016>038-118-127-128-134-139-239-281300-
NORTH FLORIDA

CITY           SKY/WX    TMP DP  RH WIND       PRES   REMARKS
MARIANNA       CLOUDY    65  64  97 E10       29.82S
TALLAHASSEE    CLOUDY    68  65  90 N7        29.84R
PERRY          CLOUDY    69  67  96 CALM      29.88R
CROSS CITY       N/A     68  67  96 VRB7      29.82S
LAKE CITY      PTSUNNY   63  63 100 NE3       29.87R
GAINESVILLE    CLOUDY    66  64  93 S5        29.84S
MAYPORT NAS    LGT RAIN  69  63  81 E10       29.86R
JACKSONVILLE   CLOUDY    67  61  81 E9        29.86R
JAX NAS        CLOUDY    70  63  78 E8        29.86R
JAX CRAIG      CLOUDY    68  62  81 E7        29.86R
JAX CECIL      CLOUDY    64  63  94 E5        29.85S
FERNANDINA BEA CLOUDY    72  59  64 E9        29.85R
ST AUGUSTINE   CLOUDY    71  66  84 E8        29.85S

STATION/POSITION SKY/WX   TEMP    WIND        PRES    WAVE   SWELL
                          AIR SEA DIR/SP/G            HT/PER HT/PER
                          (F)     (DEG/KT/KT) (MB)    (FT/S) (FT/S)
SHELL POINT                74     170/ 14/ 17   N/A
KEATON BEACH               69      20/  3/  3 1011.2R
CEDAR KEY                  69      80/  7/  8 1011.6R
FERNANDINA                 69 71   80/  5/  9 1010.2R
30.7N   81.3W                 70                N/A     3/ 4
MAYPORT                    69 68   80/  9/ 12 1010.7R
31.4N   80.9W              69 69   70/ 10/ 12 1012.4R   2/ 8   2/ 8
ST AUGUSTINE               71 69  100/ 11/ 11 1011.4R

$$
FLZ040-043>046-052-053-057-058-063-144-281300-
INTERIOR CENTRAL FLORIDA

CITY           SKY/WX    TMP DP  RH WIND       PRES   REMARKS
OCALA          LGT RAIN  68  64  88 CALM      29.86R FOG
THE VILLAGES     N/A     70  70 100 CALM      29.77R FOG
LEESBURG       LGT RAIN  69  68  96 N5        29.87R FOG
SANFORD        CLOUDY    70  68  93 NE6       29.85R
ORLANDO EXEC   CLOUDY    71  68  90 CALM      29.85R
ORLANDO INTL   LGT RAIN  71  68  90 N7        29.85R
KISSIMMEE      CLOUDY    72  70  94 NE5       29.84R
WINTER HAVEN   LGT RAIN  71  67  87 N13       29.88R
LAKELAND       LGT RAIN  72  68  88 N10       29.83R
BARTOW         LGT RAIN  70  66  88 N5        29.84R
OKEECHOBEE     CLOUDY    70  70 100 NE5       29.82R

$$
FLZ041-047-054-059-064-141-147-281300-
EAST CENTRAL FLORIDA

CITY           SKY/WX    TMP DP  RH WIND       PRES   REMARKS
ORMOND BEACH   LGT RAIN  68  66  94 CALM      29.84R FOG
DAYTONA BEACH  LGT RAIN  71  68  90 NE3       29.85R
DELAND           N/A     68  68 100 CALM      29.86R
NEW SMYRNA BEA PTSUNNY   72  70  94 E5        29.86R
JFK SPACE CTR  LGT RAIN  72  70  94 NE6       29.83R
TITUSVILLE     PTSUNNY   72  70  94 NE8       29.83R
CAPE CANAVERAL CLOUDY    72  71  96 NE6       29.82R
PATRICK AFB    CLOUDY    74  70  87 N8        29.82R
MELBOURNE      CLOUDY    73  70  90 CALM      29.82R
VERO BEACH     CLOUDY    72  68  87 CALM      29.82R
FT PIERCE      CLOUDY    73  71  93 CALM      29.81R
STUART         PTSUNNY   73  72  94 CALM      29.82R

STATION/POSITION SKY/WX   TEMP    WIND        PRES    WAVE   SWELL
                          AIR SEA DIR/SP/G            HT/PER HT/PER
                          (F)     (DEG/KT/KT) (MB)    (FT/S) (FT/S)
28.5N   80.2W              76 76   80/ 10/ 12 1009.9R
28.9N   78.5W              74 79   80/  8/ 10 1010.6R
TRIDENT PIER               71 78   30/  4/  4 1009.9R
28.4N   80.5W                 78                N/A     1/ 6
27.5N   80.2W                 78                N/A     2/ 7

$$
FLZ050-056-061-142-242-148-248-149-249-151-251-155-255-
160-260-281300-
WEST CENTRAL FLORIDA

CITY           SKY/WX    TMP DP  RH WIND       PRES   REMARKS
CRYSTAL RIVER  RAIN      68  64  88 CALM      29.87R
INVERNESS      HVY RAIN N/A N/A N/A CALM      29.88R
BROOKSVILLE    RAIN      69  67  93 CALM      29.89R FOG
CLEARWATER     LGT RAIN  71  68  90 N20G26    29.83R
TAMPA INTL     LGT RAIN  71  67  87 N17       29.85R
TAMPA EXEC     CLOUDY    72  68  88 NE3       29.83R
PLANT CITY     LGT RAIN  70  70 100 NE9       29.86R
MACDILL AFB    LGT RAIN  73  70  91 NE8       29.82R
PETER O KNIGHT DRIZZLE   72  70  94 NE12      29.83R
ST PETERSBURG  CLOUDY    76  68  76 E12       29.80R
SARASOTA       CLOUDY    74  67  78 NE6       29.79R
VENICE         FAIR      75  70  83 SE6       29.80R

STATION/POSITION SKY/WX   TEMP    WIND        PRES    WAVE   SWELL
                          AIR SEA DIR/SP/G            HT/PER HT/PER
                          (F)     (DEG/KT/KT) (MB)    (FT/S) (FT/S)
CEDAR KEY                  69      80/  7/  8 1011.6R
28.5N   84.5W              70 74  350/  8/ 10 1010.9R   2/ 7   2/ 7
27.3N   84.2W                 78                N/A     4/ 4
CLEARWATER BEACH           71 80   30/  6/  9 1009.0R
MIDDLE TAMPA BAY           74     110/ 11/ 12 1008.7R
VENICE                     75 83  110/  4/  6 1008.5R

$$
FLZ066-069-070-075>078-162-262-165-265-281300-
SOUTHWEST FLORIDA AND KEYS

CITY           SKY/WX    TMP DP  RH WIND       PRES   REMARKS
PUNTA GORDA    LGT RAIN  73  69  87 SE10      29.80R
FT MYERS       CLOUDY    76  70  82 SE10      29.77S
SOUTHWEST INTL CLOUDY    75  69  81 SE7       29.78S
NAPLES         CLOUDY    76  72  87 E8        29.79R
MARCO ISLAND   CLOUDY    73  68  83 E6        29.79R
IMMOKALEE      MOSUNNY  N/A N/A N/A SE7       29.80S
MARATHON       PTSUNNY   83  77  82 S7        29.80R
KEY WEST NAS   MOSUNNY   82  75  79 S15       29.80R
KEY WEST INTL  MOSUNNY   83  76  79 S14       29.80R

STATION/POSITION SKY/WX   TEMP    WIND        PRES    WAVE   SWELL
                          AIR SEA DIR/SP/G            HT/PER HT/PER
                          (F)     (DEG/KT/KT) (MB)    (FT/S) (FT/S)
VENICE                     75 83  110/  4/  6 1008.5R
NAPLES                     74 83   90/  5/  9 1007.9R
26.0N   85.6W              81 79  170/ 17/ 21 1004.6F   6/ 7
DRY TORTUGAS               82     190/ 13/ 15 1008.0R
NW FL BAY                  84     190/ 11/ 14 1008.3
SAND KEY                   82     190/ 12/ 15 1008.9R
SOMBRERO KEY               82     210/ 14/ 16 1009.6R
LONG KEY                   83 87  220/ 13/ 14 1010.0R
MOLASSES REEF              82 82  190/ 12/ 13 1009.1R

$$
FLZ067-068-071>074-168-172>174-281300-
SOUTHEAST FLORIDA

CITY           SKY/WX    TMP DP  RH WIND       PRES   REMARKS
W PALM BEACH   PTSUNNY   78  72  81 SE7       29.81R
FT LAUDER-EXEC PTSUNNY   78  73  84 E8        29.80R
FT LAUDERDALE  CLOUDY    80  75  84 SE8       29.80R
POMPANO BEACH  PTSUNNY   80  73  79 E7        29.80R
PEMBROKE PINES PTSUNNY   79  73  82 E6        29.81S
OPA LOCKA      MOSUNNY   80  73  79 SE6       29.80R
MIAMI          CLOUDY    81  74  79 E8        29.80R
WEST KENDALL   MOSUNNY   82  75  79 SE8       29.80R
HOMESTEAD      MOSUNNY   82  76  80 E5        29.80R

STATION/POSITION SKY/WX   TEMP    WIND        PRES    WAVE   SWELL
                          AIR SEA DIR/SP/G            HT/PER HT/PER
                          (F)     (DEG/KT/KT) (MB)    (FT/S) (FT/S)
PORT EVERGLADES            80     130/  6/  8 1009.3R
VIRGINIA KEY               80 84   90/  8/ 10 1008.5S


USA.gov is the U.S. government's official web portal to all federal, state and local government web resources and services.